TimeEDT,TemperatureF,Dew PointF,Humidity,Sea Level PressureIn,VisibilityMPH,Wind Direction,Wind SpeedMPH,Gust SpeedMPH,PrecipitationIn,Events,Conditions,WindDirDegrees,DateUTC
12:53 AM,32.0,30.9,96,30.19,0.2,Calm,Calm,-,N/A,Fog,Fog,0,2011-11-01 04:53:00
1:53 AM,30.0,28.9,96,30.21,0.2,Calm,Calm,-,N/A,Fog,Light Freezing Fog,0,2011-11-01 05:53:00
2:53 AM,-9999,-9999,N/A,30.19,0.2,Calm,Calm,-,N/A,Fog,Fog,0,2011-11-01 06:53:00
3:53 AM,28.0,28.0,100,30.22,0.2,Calm,Calm,-,N/A,Fog,Light Freezing Fog,0,2011-11-01 07:53:00
4:53 AM,28.0,27.0,96,30.23,0.2,Calm,Calm,-,N/A,Fog,Light Freezing Fog,0,2011-11-01 08:53:00
5:29 AM,28.4,28.4,100,30.21,0.2,Calm,Calm,-,N/A,Fog,Light Freezing Fog,0,2011-11-01 09:29:00
5:41 AM,28.4,26.6,93,30.20,0.2,Calm,Calm,-,N/A,Fog,Light Freezing Fog,0,2011-11-01 09:41:00
5:53 AM,28.9,28.0,96,30.23,0.2,Calm,Calm,-,N/A,Fog,Light Freezing Fog,0,2011-11-01 09:53:00
6:12 AM,26.6,26.6,100,30.21,0.2,Calm,Calm,-,N/A,Fog,Light Freezing Fog,0,2011-11-01 10:12:00
6:45 AM,26.6,26.6,100,30.22,0.2,Calm,Calm,-,N/A,Fog,Light Freezing Fog,0,2011-11-01 10:45:00
6:53 AM,28.0,27.0,96,30.24,0.2,Calm,Calm,-,N/A,Fog,Light Freezing Fog,0,2011-11-01 10:53:00
7:00 AM,28.4,26.6,93,30.22,1.5,Calm,Calm,-,N/A,,Partly Cloudy,0,2011-11-01 11:00:00
7:03 AM,26.6,26.6,100,30.21,3.0,Calm,Calm,-,N/A,,Partly Cloudy,0,2011-11-01 11:03:00
7:23 AM,-9999,-9999,N/A,30.22,2.0,Calm,Calm,-,N/A,,Clear,0,2011-11-01 11:23:00
7:27 AM,-9999,-9999,N/A,30.22,1.5,Calm,Calm,-,N/A,,Partly Cloudy,0,2011-11-01 11:27:00
7:30 AM,-9999,-9999,N/A,30.22,1.0,Calm,Calm,-,N/A,,Mist,0,2011-11-01 11:30:00
7:41 AM,-9999,-9999,N/A,30.22,2.0,Calm,Calm,-,N/A,,Mostly Cloudy,0,2011-11-01 11:41:00
7:43 AM,-9999,-9999,N/A,30.22,0.8,Calm,Calm,-,N/A,,Mist,0,2011-11-01 11:43:00
7:53 AM,-9999,-9999,N/A,30.22,0.2,Calm,Calm,-,N/A,Fog,Fog,0,2011-11-01 11:53:00
8:02 AM,-9999,-9999,N/A,30.22,2.0,Calm,Calm,-,N/A,,Mostly Cloudy,0,2011-11-01 12:02:00
8:04 AM,-9999,-9999,N/A,30.22,1.0,Calm,Calm,-,N/A,,Mist,0,2011-11-01 12:04:00
8:11 AM,-9999,-9999,N/A,30.22,0.2,Calm,Calm,-,N/A,Fog,Fog,0,2011-11-01 12:11:00
8:49 AM,-9999,-9999,N/A,30.24,0.2,Calm,Calm,-,N/A,Fog,Fog,0,2011-11-01 12:49:00
8:53 AM,-9999,-9999,N/A,30.24,2.5,Calm,Calm,-,N/A,,Clear,0,2011-11-01 12:53:00
8:58 AM,-9999,-9999,N/A,30.24,2.5,Calm,Calm,-,N/A,,Partly Cloudy,0,2011-11-01 12:58:00
9:05 AM,-9999,-9999,N/A,30.24,1.2,Calm,Calm,-,N/A,,Partly Cloudy,0,2011-11-01 13:05:00
9:12 AM,30.2,30.2,100,30.24,5.0,Calm,Calm,-,N/A,,Clear,0,2011-11-01 13:12:00
9:53 AM,37.0,37.0,100,30.26,5.0,SSW,3.5,-,N/A,,Clear,210,2011-11-01 13:53:00
10:53 AM,43.0,37.9,82,30.27,10.0,SSW,5.8,-,N/A,,Clear,200,2011-11-01 14:53:00
11:53 AM,48.9,39.0,69,30.27,10.0,SSW,6.9,-,N/A,,Clear,210,2011-11-01 15:53:00
12:53 PM,54.0,39.0,57,30.24,10.0,Variable,6.9,-,N/A,,Clear,0,2011-11-01 16:53:00
1:53 PM,55.9,37.9,51,30.21,10.0,South,13.8,-,N/A,,Clear,180,2011-11-01 17:53:00
2:53 PM,57.9,37.9,47,30.18,10.0,South,8.1,17.3,N/A,,Clear,190,2011-11-01 18:53:00
3:53 PM,57.9,36.0,44,30.18,10.0,SSW,13.8,20.7,N/A,,Clear,200,2011-11-01 19:53:00
4:53 PM,57.9,36.0,44,30.19,10.0,South,11.5,-,N/A,,Clear,190,2011-11-01 20:53:00
5:53 PM,55.9,36.0,47,30.19,10.0,SSW,8.1,-,N/A,,Clear,200,2011-11-01 21:53:00
6:53 PM,52.0,36.0,54,30.19,10.0,South,3.5,-,N/A,,Clear,180,2011-11-01 22:53:00
7:53 PM,51.1,36.0,56,30.17,10.0,South,4.6,-,N/A,,Clear,190,2011-11-01 23:53:00
8:53 PM,45.0,35.1,68,30.18,10.0,South,4.6,-,N/A,,Clear,180,2011-11-02 00:53:00
9:53 PM,48.0,34.0,58,30.19,10.0,South,4.6,-,N/A,,Clear,190,2011-11-02 01:53:00
10:53 PM,46.9,35.1,63,30.19,10.0,South,4.6,-,N/A,,Clear,190,2011-11-02 02:53:00
11:53 PM,46.0,35.1,66,30.18,10.0,SSW,4.6,-,N/A,,Clear,210,2011-11-02 03:53:00